Flag for United Kingdom Weather past 2 weeks in Edinburgh, Scotland, United Kingdom

Now
39 °F

Passing clouds.


Feels Like: 31 °F
Forecast: N/A
Wind: 15 mph from West

Location: Edinburgh Airport

Current Time: Dec 19, 2014 at 8:37:35 PM

Latest Report: Dec 19, 2014 at 8:20 PM


Visibility: N/A

Pressure: 29.77 "Hg

Humidity: 87%

Dew point: 36 °F

Location of EdinburghLocation

Historic Weather in Edinburgh — Graph

°F

Edinburgh temperature yesterday

Maximum temperature yesterday: 52 °F (at 4:20 AM)
Minimum temperature yesterday: 41 °F (at 9:50 PM)
Average temperature yesterday: 48 °F

Past Weeks' High & Low Weather Summary

 TemperatureHumidityPressure
High52 °F (Dec 9, 2:50 PM)100% (Dec 4, 8:50 PM)30.27 "Hg (Dec 4, 8:50 PM)
Low27 °F (Dec 9, 2:20 AM)66% (Dec 10, 6:20 PM)29.15 "Hg (Dec 12, 2:50 AM)
Average40 °F86%29.63 "Hg
* Reported Dec 4 7:20 PM — Dec 19 7:20 PM, Edinburgh, Weather by CustomWeather, © 2014

Note: Actual official high and low records may vary slightly from our data, if they occured in-between our weather recording intervals... More about our weather records

Advertising

Edinburgh weather history for previous 24 hours

 ConditionsComfort  
Time TempWeatherWind HumidityBarometerVisibility
7:20 PM
Dec 19
39 °FSprinkles. Passing clouds.15 mph87%29.77 "HgN/A
6:50 PM39 °FClear.17 mph87%29.74 "Hg10 mi
6:20 PM41 °FPassing clouds.20 mph81%29.74 "HgN/A
5:50 PM39 °FPassing clouds.17 mph87%29.71 "HgN/A
5:20 PM39 °FSprinkles. Passing clouds.20 mph87%29.71 "HgN/A
4:50 PM39 °FPassing clouds.15 mph81%29.71 "HgN/A
4:20 PM39 °FSprinkles. Passing clouds.22 mph81%29.71 "HgN/A
3:50 PM39 °FSprinkles. Passing clouds.20 mph87%29.68 "Hg6 mi
3:20 PM39 °FSprinkles. Broken clouds.14 mph87%29.68 "HgN/A
2:50 PM39 °FScattered showers. Broken clouds.12 mph87%29.65 "HgN/A
2:20 PM41 °FSprinkles. Scattered clouds.18 mph76%29.65 "HgN/A
1:50 PM41 °FPassing clouds.17 mph81%29.65 "HgN/A
1:20 PM41 °FSprinkles. Broken clouds.20 mph81%29.65 "Hg6 mi
12:50 PM41 °FSprinkles. Scattered clouds.17 mph81%29.65 "HgN/A
12:20 PM39 °FScattered clouds.13 mph87%29.65 "HgN/A
11:50 AM37 °FLight rain. Scattered clouds.15 mph93%29.65 "HgN/A
11:20 AM41 °FPassing clouds.15 mph76%29.62 "HgN/A
10:50 AM39 °FScattered clouds.9 mph87%29.62 "HgN/A
10:20 AM39 °FSprinkles. Scattered clouds.12 mph87%29.62 "HgN/A
9:50 AM39 °FRain showers. Scattered clouds.15 mph81%29.59 "HgN/A
9:20 AM39 °FPassing clouds.16 mph75%29.59 "HgN/A
8:50 AM37 °FPassing clouds.12 mph87%29.56 "HgN/A
8:20 AM39 °FSprinkles. Passing clouds.14 mph87%29.56 "HgN/A
7:50 AM37 °FPassing clouds.15 mph87%29.53 "HgN/A
7:20 AM39 °FPassing clouds.20 mph81%29.53 "HgN/A
6:50 AM39 °FRain showers. Passing clouds.17 mph87%29.50 "Hg4 mi
6:20 AM39 °FLight rain. Passing clouds.22 mph87%29.50 "HgN/A
5:50 AM39 °FPassing clouds.16 mph87%29.50 "HgN/A
5:20 AM41 °FLight rain. Passing clouds.16 mph81%29.47 "HgN/A
4:50 AM41 °FClear.21 mph81%29.47 "Hg10 mi
4:20 AM39 °FPassing clouds.18 mph87%29.47 "HgN/A
3:20 AM39 °FLight rain. Passing clouds.17 mph87%29.47 "HgN/A
2:50 AM39 °FLight rain. Passing clouds.18 mph93%29.47 "HgN/A
2:20 AM41 °FLight rain. Partly cloudy.21 mph87%29.47 "Hg4 mi
1:50 AM39 °FPassing clouds.15 mph87%29.47 "HgN/A
1:20 AM41 °FLight rain. Passing clouds.21 mph81%29.47 "HgN/A
12:50 AM39 °FPassing clouds.15 mph87%29.47 "HgN/A
12:20 AM41 °FPartly cloudy.20 mph81%29.47 "HgN/A
11:50 PM
Dec 18
41 °FPassing clouds.16 mph81%29.47 "HgN/A
11:20 PM41 °FPassing clouds.16 mph81%29.47 "HgN/A
10:50 PM41 °FPassing clouds.16 mph81%29.47 "HgN/A
10:20 PM43 °FPassing clouds.17 mph81%29.47 "HgN/A
9:50 PM41 °FPassing clouds.12 mph87%29.47 "HgN/A
9:20 PM43 °FClear.15 mph81%29.45 "Hg10 mi
8:50 PM43 °FPassing clouds.16 mph87%29.45 "HgN/A
8:20 PM43 °FPassing clouds.14 mph87%29.45 "HgN/A
Weather by CustomWeather, © 2014

See weather overviewHow to use our weather pages